Location: Baix
(44.7118°N, 4.7648°E)
Time: 03:33:24
(UTC+00:00)

Cosmos 1607 - Pass Details

Date: 07 August 2020
Orbit: 910 x 992 km, 65.0° (Epoch: 27 September)

Event Time Altitude Azimuth Distance (km) Brightness Sun altitude
Rises 02:16:52 0° 323° (NW) 3,692 7.2 -20.1°
Reaches altitude 10° 02:19:26 10° 322° (NW) 2,748 6.5 -19.8°
Maximum altitude 02:25:53 76° 239° (WSW) 1,024 3.9 -19.1°
Drops below altitude 10° 02:32:19 10° 155° (SSE) 2,744 6.1 -18.3°
Sets 02:34:54 0° 153° (SSE) 3,687 6.8 -18.0°
